Back to catalog

CZ-6A DEB

AlivePO
NORAD 60820·DEBRIS·🇨🇳 China

Launched Aug 6, 2024 from Taiyuan Satellite Launch Center

Loading…

Next Passes (next 24 hours)

TLE

FreshSource: Space-Track

Epoch: Sep 14, 2026, 10:58 UTC

1 60820U 24140GX  26257.45697592  .00000917  00000-0  38646-3 0  9993
2 60820  88.9877 263.3124 0029098 251.5450 108.2579 14.24695212108430

Track CZ-6A DEB in real time with AllMySat

Download on the App Store